The Dalles, WA

2:21 PM PDT on October 21, 2019 (GMT -0700)
Columbia Gorge Regional-The Dalles

Weather History for KDLS - September, 2019

Change the Weather History Date:

Sunday, September 22, 2019

  Actual Average Record
Temperature  
Mean Temperature 59 °F -  
Max Temperature 64 °F 78 °F 96 °F (1966)
Min Temperature 54 °F 47 °F 35 °F (1981)
Degree Days  
Heating Degree Days 6    
Growing Degree Days 9 (Base 50)    
Moisture  
Dew Point 54 °F    
Average Humidity 82    
Maximum Humidity 93    
Minimum Humidity 65    
Precipitation  
Precipitation 0.20 in - - ()
Sea Level Pressure  
Sea Level Pressure 29.90 in    
Wind  
Wind Speed 4 mph (WSW)    
Max Wind Speed 10 mph    
Max Gust Speed -    
Visibility 9 miles    
Events Rain    
Averages and records for this station are not official NWS values.
T = Trace of Precipitation, MM = Missing Value Source: NWS Daily Summary

Daily Weather History Graph

Daily Weather History Graph

Search for Another Location

Airport or City:

Astronomy

Sep. 22, 2019 Rise Set
Actual Time 6:51 AM PDT 7:02 PM PDT
Civil Twilight 6:21 AM PDT 7:32 PM PDT
Nautical Twilight 5:47 AM PDT 8:06 PM PDT
Astronomical Twilight 5:11 AM PDT 8:42 PM PDT
Moon No Moon Rise 3:22 PM PDT (9/22)
Length of Visible Light 13h 10m
Length of Day
12h 10m
Last Quarter, 43% of the Moon is Illuminated
Sep 22
Last Quarter
Sep 28
New
Oct 5
First Quarter
Oct 13
Full
Oct 21
Last Quarter

Hourly Weather History & Observations

Time (PDT) Temp. Dew Point Humidity Pressure Visibility Wind Dir Wind Speed Gust Speed Precip Events Conditions
12:53 AM 60.1 °F 50.0 °F 69% 29.93 in 10.0 mi SW 6.9 mph - N/A   Clear
1:53 AM 57.0 °F 48.9 °F 74% 29.92 in 10.0 mi South 3.5 mph - N/A   Clear
2:53 AM 55.0 °F 48.9 °F 80% 29.91 in 10.0 mi Calm Calm - N/A   Clear
3:53 AM 55.0 °F 48.0 °F 77% 29.90 in 10.0 mi East 5.8 mph - N/A   Clear
4:53 AM 54.0 °F 48.0 °F 80% 29.89 in 10.0 mi SE 4.6 mph - N/A   Clear
5:53 AM 54.0 °F 48.0 °F 80% 29.89 in 10.0 mi SE 3.5 mph - N/A   Clear
6:53 AM 54.0 °F 48.9 °F 83% 29.88 in 10.0 mi ESE 4.6 mph - N/A   Clear
7:53 AM 57.0 °F 50.0 °F 77% 29.88 in 10.0 mi ESE 5.8 mph - N/A   Clear
8:53 AM 60.1 °F 51.1 °F 72% 29.89 in 10.0 mi Calm Calm - N/A   Clear
9:53 AM 61.0 °F 52.0 °F 72% 29.88 in 10.0 mi Variable 3.5 mph - N/A   Clear
10:53 AM 64.9 °F 53.1 °F 65% 29.88 in 10.0 mi WNW 3.5 mph - N/A   Scattered Clouds
11:53 AM 64.0 °F 54.0 °F 70% 29.88 in 10.0 mi WNW 5.8 mph - N/A   Overcast
12:53 PM 63.0 °F 57.9 °F 84% 29.88 in 10.0 mi NW 4.6 mph - 0.03 in Rain Light Rain
1:53 PM 63.0 °F 57.9 °F 84% 29.88 in 8.0 mi WSW 3.5 mph - 0.03 in Rain Light Rain
2:53 PM 62.1 °F 59.0 °F 90% 29.89 in 4.0 mi NW 6.9 mph - 0.05 in Rain Light Rain
3:13 PM 62.1 °F 60.1 °F 93% 29.88 in 2.5 mi Calm Calm - 0.04 in Rain Light Rain
3:21 PM 62.1 °F 59.0 °F 90% 29.89 in 5.0 mi Calm Calm - 0.05 in Rain Light Rain
3:53 PM 62.1 °F 59.0 °F 90% 29.89 in 9.0 mi NNW 3.5 mph - 0.06 in Rain Light Rain
4:37 PM 63.0 °F 59.0 °F 87% 29.89 in 10.0 mi Calm Calm - 0.02 in Rain Light Rain
4:53 PM 64.0 °F 60.1 °F 87% 29.89 in 10.0 mi Calm Calm - 0.02 in Rain Light Rain
5:53 PM 64.0 °F 60.1 °F 87% 29.89 in 10.0 mi South 3.5 mph - 0.01 in   Mostly Cloudy
6:53 PM 62.1 °F 57.9 °F 86% 29.90 in 10.0 mi NNW 4.6 mph - N/A   Mostly Cloudy
7:53 PM 61.0 °F 57.0 °F 87% 29.91 in 10.0 mi WNW 3.5 mph - N/A   Clear
8:53 PM 60.1 °F 55.9 °F 86% 29.93 in 10.0 mi SW 3.5 mph - N/A   Partly Cloudy
9:53 PM 60.1 °F 55.9 °F 86% 29.95 in 10.0 mi Variable 3.5 mph - N/A   Overcast
10:53 PM 57.9 °F 55.0 °F 90% 29.97 in 10.0 mi SW 5.8 mph - N/A   Clear
11:53 PM 60.1 °F 53.1 °F 78% 29.99 in 10.0 mi WNW 10.4 mph - N/A   Clear